Regional Weather Roundup
Issued by NWS Kansas City/Pleasant Hill, MO

Home | Current Version | Previous Version | Text Only | Print | Product List | Glossary On
Versions: 1 2 3 4 5 6 7 8 9 10 11 12 13 14 15 16 17 18 19 20 21 22 23 24 25 26 27
000
ASUS43 KEAX 241610
RWREAX

WEATHER ROUNDUP FOR EASTERN KANSAS AND NORTHWEST MISSOURI
NATIONAL WEATHER SERVICE KANSAS CITY/PLEASANT HILL MO
1100 AM CDT WED MAY 24 2017

KSZ040-057-103>105-MOZ028-029-037-043-241700-
...KANSAS CITY METROPOLITAN AREA...

CITY           SKY/WX    TMP DP  RH WIND       PRES   REMARKS
K.C. INTL      CLOUDY    56  49  77 N13       29.71S
K.C. DOWNTOWN  CLOUDY    57  49  74 NW12G18   29.70S
LEES SUMMIT    CLOUDY    54  51  90 NW16      29.70F
OLATHE - IXD   CLOUDY    58  49  72 NW15G28   29.72S
OLATHE - OJC   CLOUDY    56  50  80 N16       29.71S
LAWRENCE       FAIR      61  52  72 NW16      29.72F

$$

MOZ001>008-011>017-020>025-030>033-038>040-044>046-053-054-241700-
...NORTHERN AND CENTRAL MISSOURI...

CITY           SKY/WX    TMP DP  RH WIND       PRES   REMARKS
ST. JOSEPH     PTSUNNY   61  51  70 N18       29.71F
MOSBY          RAIN      54  52  94 N9        29.70S
WARRENSBURG    CLOUDY    54  50  87 NW9       29.68F
WHITEMAN AFB   PTSUNNY   54  54 100 NW10      29.67S
CLINTON        CLOUDY    57  48  72 W8        29.69F
SEDALIA        CLOUDY    59  50  72 NW8       29.67F
WARSAW         NOT AVBL
CHILLICOTHE      N/A     59  51  75 VRB5      29.67F
KIRKSVILLE     PTSUNNY   58  49  72 NW6       29.65F

$$

MOZ041-047>049-056>058-063>065-088>090-097-241700-
...EASTERN AND SOUTHERN MISSOURI...

CITY           SKY/WX    TMP DP  RH WIND       PRES   REMARKS
ST. LOUIS INTL PTSUNNY   64  50  60 NW12      29.58F
SPIRIT OF STL  PTSUNNY   62  50  64 NW13      29.58F
COLUMBIA       PTSUNNY   57  49  74 W13       29.64F
JEFFERSON CITY PTSUNNY   61  48  62 W15G22    29.63F
ROLLA          PTSUNNY   58  48  69 NW9       29.62F
OSAGE BEACH    LGT RAIN  55  47  74 NW7G17    29.66F
SPRINGFIELD    CLOUDY    56  44  64 NW12G21   29.68F
BRANSON        PTSUNNY   57  45  62 W9G21     29.70S
JOPLIN         PTSUNNY   60  48  64 NW12      29.73F
WEST PLAINS    PTSUNNY   59  46  62 NW9G18    29.64F

$$

IAZ060-094-KSZ022-034>040-054-083-096-NEZ052-066-093-241700-
...KANSAS...SOUTHEAST NEBRASKA AND IOWA...

CITY           SKY/WX    TMP DP  RH WIND       PRES   REMARKS
TOPEKA         PTSUNNY   61  51  70 N12       29.73F
MANHATTAN      FAIR      62  46  55 N9        29.77F
EMPORIA        FAIR      58  46  64 N14       29.76F
CHANUTE        PTSUNNY   62  48  60 NW13G24   29.75F
WICHITA        PTSUNNY   60  45  57 NW16G23   29.81F
OMAHA          FAIR      59  48  67 N12       29.75F
LINCOLN        PTSUNNY   59  46  62 N12       29.77F
FALLS CITY     FAIR      61  49  64 NW14G22   29.72F
LAMONI         CLOUDY    54  51  90 N13G23    29.68F
DES MOINES     CLOUDY    55  49  80 N12       29.69S

$$





USA.gov is the U.S. government's official web portal to all federal, state and local government web resources and services.